GEFSSGP_500_meanwind_204.txt.gz
Wind_Speed
23 23 24 24 24 24 23 23 23 23 24 24 24 25 25 25 25 26 24 23 22 21 21 21 21 21 20 20 20 20 19 19 18 18 17 16 16 15 15 15 14 14 14 13 14 14 13 13 13
23 24 25 25 25 24 24 24 24 25 25 25 25 26 26 26 26 26 26 25 24 23 23 23 23 23 22 22 22 22 21 21 20 20 19 19 18 17 17 17 16 16 16 15 15 15 14 14 14
24 24 25 26 25 25 26 25 25 26 26 26 26 26 26 26 26 27 27 26 25 25 25 25 25 25 24 24 23 23 23 22 22 22 21 21 20 19 18 18 18 18 18 17 17 17 16 16 16
24 25 26 26 25 26 27 26 26 26 27 27 27 27 27 27 27 27 27 27 27 26 26 27 26 26 26 26 25 25 24 24 24 24 23 23 22 22 21 20 20 19 19 19 19 18 18 18 17
24 25 26 25 25 27 28 28 27 28 28 28 28 29 29 28 28 28 28 28 28 27 27 28 28 27 27 27 27 26 26 26 26 25 25 24 23 23 23 22 22 22 21 21 21 21 20 19 19
23 25 26 25 26 27 28 29 30 30 30 30 30 30 31 30 30 29 29 29 29 29 29 29 29 29 29 29 29 29 28 28 28 27 27 26 26 25 25 24 24 24 23 23 22 22 22 22 21
24 25 25 26 26 27 28 29 31 32 31 31 31 31 31 31 31 30 30 30 30 30 30 30 30 30 30 30 30 30 30 30 29 29 29 28 28 27 27 26 26 26 25 25 25 24 24 23 23
25 25 25 26 27 27 27 28 30 31 32 32 33 33 33 33 33 32 32 32 32 32 31 31 31 32 32 32 32 32 32 31 31 31 31 30 30 30 29 29 28 28 28 28 27 26 26 26 26
26 26 25 26 27 27 28 29 30 31 31 32 33 34 35 35 35 34 34 34 34 34 34 34 34 34 34 34 34 34 34 34 33 33 33 32 32 32 32 31 31 30 30 30 30 30 29 29 28
26 27 26 27 28 28 29 30 31 32 32 33 34 35 37 37 37 36 37 37 37 37 37 37 36 36 37 37 37 37 36 36 36 36 35 35 34 35 35 34 34 33 33 32 32 32 32 31 31
26 26 27 27 28 29 30 30 31 32 32 33 35 36 37 38 39 39 39 39 39 39 39 40 40 39 39 40 40 40 39 39 39 39 39 38 37 37 37 37 36 36 36 35 34 34 34 33 33
24 25 27 28 29 29 30 31 32 32 33 34 36 37 38 39 40 41 41 41 41 41 41 42 42 42 42 42 43 43 42 42 42 42 42 41 40 40 39 39 39 38 38 38 37 36 36 36 35
25 25 27 28 29 30 30 31 32 32 34 35 36 37 38 39 40 41 42 43 43 43 43 42 43 43 43 43 43 44 44 43 43 44 44 43 43 42 41 41 41 40 40 40 40 39 39 38 38
25 26 27 28 29 30 31 32 33 33 35 36 36 37 37 39 40 41 41 43 43 44 44 44 44 44 45 45 45 46 46 45 45 46 46 45 45 45 44 43 43 43 42 42 42 42 41 41 40
27 27 27 28 29 30 31 32 33 34 35 36 36 37 38 39 40 41 41 42 43 44 44 44 45 46 46 46 47 48 48 47 47 47 48 47 47 47 46 46 45 45 45 45 44 44 44 43 42
28 28 29 29 30 31 32 31 32 34 35 36 36 37 38 40 41 41 42 42 43 44 45 46 47 47 47 47 48 48 49 49 49 49 49 49 49 49 48 48 47 47 47 47 46 46 46 45 44
29 30 30 30 30 31 32 31 32 34 35 35 36 37 38 39 41 42 43 43 44 44 45 46 48 48 48 49 49 49 50 50 50 51 51 51 51 51 51 50 50 49 49 49 48 48 48 47 47
31 31 31 32 32 32 33 32 32 35 36 36 36 37 38 39 41 42 42 43 44 44 45 46 47 49 50 50 50 50 51 51 52 52 52 53 52 53 53 53 52 52 52 51 51 50 50 50 50
33 33 32 33 34 34 34 34 33 34 36 37 37 37 38 40 41 42 42 43 43 44 46 46 47 48 50 51 51 51 52 52 53 53 54 54 55 55 55 54 54 54 54 54 53 53 52 52 52
34 35 35 35 36 37 36 35 35 35 36 37 37 38 39 40 41 42 42 43 44 44 45 46 46 48 49 51 52 53 53 54 53 54 55 55 56 56 56 56 55 55 55 55 55 55 54 53 53
36 36 36 37 38 39 39 37 36 36 36 38 38 38 39 40 41 41 42 43 44 45 45 46 47 47 49 51 52 53 54 54 55 55 55 55 56 57 57 57 56 56 56 56 56 56 56 55 54
38 38 39 39 40 41 40 41 36 37 38 39 39 39 39 40 40 41 42 43 44 44 44 45 46 47 48 49 51 52 53 53 54 55 55 56 57 57 57 57 57 57 57 56 56 56 56 56 55
39 39 40 40 42 43 41 43 40 39 39 39 40 40 39 40 40 42 42 42 43 43 43 44 45 46 47 48 49 50 51 53 54 54 55 55 56 56 56 57 56 57 57 57 57 57 57 57 56
40 40 41 42 43 44 42 43 42 40 40 40 40 40 41 41 41 42 42 42 42 43 43 44 46 47 47 48 49 50 51 52 53 53 54 55 56 56 56 56 56 57 57 57 57 58 58 57 58
41 40 41 43 44 44 43 44 43 41 40 40 39 40 40 41 41 41 41 42 42 43 43 44 46 47 47 48 49 50 51 51 52 53 54 55 56 56 56 56 56 56 57 57 58 58 58 58 58
42 42 42 43 44 45 44 44 42 41 41 41 41 41 41 41 41 42 42 43 43 43 44 43 44 45 45 47 49 51 51 51 51 52 53 55 56 57 57 57 56 56 57 57 58 58 59 60 59
43 43 43 44 45 46 46 46 44 42 42 43 42 42 42 42 42 42 43 42 43 43 43 43 44 44 45 47 48 49 49 50 50 51 52 53 55 56 56 55 55 56 56 56 56 58 59 60 59
44 44 44 44 45 46 46 45 44 43 43 43 43 43 42 42 42 43 43 42 43 43 43 43 44 45 46 47 48 48 49 49 49 51 52 53 53 54 54 54 54 54 55 54 55 56 57 58 59
44 44 44 45 45 46 46 45 43 43 43 44 44 44 43 44 44 43 43 43 43 43 43 43 44 45 44 45 46 47 47 47 48 49 49 50 51 51 51 52 52 52 53 53 55 56 56 57 58
45 44 44 44 45 45 46 46 43 42 43 44 44 44 44 44 45 44 43 43 42 42 42 42 43 44 43 43 44 44 45 45 46 46 48 49 50 50 50 52 52 52 52 53 54 55 55 56 56

GEFSSGP_500_meanwind_210.txt.gz
Wind_Speed
22 22 22 22 22 21 20 21 21 22 22 22 23 23 23 23 23 22 21 20 20 20 20 20 19 19 19 19 19 19 18 18 18 17 17 17 16 16 15 15 14 14 13 13 13 13 13 13 13
23 23 23 24 23 22 22 22 22 21 22 23 24 24 23 23 23 22 22 22 22 22 22 22 22 21 21 21 21 20 20 20 20 19 19 19 18 18 17 17 16 16 15 15 15 14 14 14 15
23 24 24 24 24 23 23 23 23 23 23 24 24 25 24 23 23 23 23 23 23 23 23 23 23 23 22 22 22 22 22 22 22 21 21 20 20 20 20 19 19 18 18 17 16 16 16 15 15
23 24 25 25 24 24 24 24 24 23 23 25 25 25 24 24 24 24 24 24 24 24 24 24 24 23 24 24 24 24 24 23 23 23 23 23 22 21 21 21 20 20 20 19 19 18 18 18 17
24 25 25 25 24 25 25 25 25 24 24 25 26 26 25 25 25 25 25 25 24 24 24 24 24 24 24 24 25 25 25 25 25 25 25 25 25 24 23 23 22 22 21 21 21 20 20 19 19
24 25 25 25 25 26 26 25 25 26 26 26 26 27 26 26 26 26 26 26 25 25 25 25 25 25 25 25 26 26 26 26 26 26 26 27 27 26 26 25 25 24 24 23 23 22 22 21 21
23 24 24 24 25 25 25 25 26 26 27 26 27 28 27 27 27 27 27 27 27 27 27 27 26 26 26 26 26 27 27 27 28 27 27 28 27 27 27 27 26 26 26 26 25 25 24 24 23
23 23 23 23 24 24 24 25 26 26 26 26 27 27 27 28 28 28 28 28 28 28 28 28 28 28 28 28 28 28 28 29 29 29 29 29 29 29 29 29 28 28 27 27 27 27 27 26 26
23 24 23 23 23 23 24 25 25 26 26 26 27 27 28 28 29 30 30 30 30 30 30 30 30 31 30 30 30 30 31 30 31 31 31 31 31 31 31 31 30 30 30 29 29 29 29 28 28
24 24 23 24 24 24 24 25 25 26 26 26 26 28 28 29 30 30 31 31 31 32 32 33 33 33 33 33 33 33 33 33 33 33 33 34 33 33 33 33 33 32 32 32 32 32 32 31 30
25 24 24 24 25 25 25 25 26 26 26 26 27 28 30 30 30 31 32 32 33 33 33 34 34 35 35 35 35 35 35 35 35 35 35 36 36 35 35 35 35 34 34 34 34 34 34 34 34
25 25 26 25 26 26 26 26 27 26 26 27 27 29 30 31 31 32 33 34 34 35 36 36 36 37 37 37 37 37 37 38 38 37 37 37 38 38 37 37 36 36 36 36 36 36 36 36 36
26 26 26 26 27 27 27 27 27 27 27 28 29 30 31 32 32 33 33 34 35 35 36 37 38 39 39 39 39 40 40 40 40 40 40 40 40 39 39 39 39 39 39 38 39 39 39 39 38
27 27 27 27 28 27 28 28 28 27 28 29 30 31 32 33 33 34 34 35 36 36 37 38 39 40 41 41 41 41 41 42 42 42 42 42 42 42 42 42 42 42 42 41 41 41 41 41 41
28 28 28 28 28 28 28 28 27 27 29 30 31 31 32 34 35 36 36 36 37 37 38 38 39 40 41 42 44 44 44 44 44 44 44 44 44 44 44 44 45 45 44 43 43 43 44 43 43
29 29 29 28 29 29 30 27 27 28 29 30 31 32 33 34 35 36 37 37 38 38 38 39 41 41 42 43 45 46 46 46 46 47 46 46 47 46 46 46 46 46 46 46 45 45 46 46 45
30 30 30 29 30 31 31 28 28 29 29 30 31 33 34 35 36 37 38 38 39 39 39 40 42 43 43 44 45 46 47 47 48 48 48 48 49 48 48 48 48 49 49 48 48 47 47 47 47
32 32 31 31 31 32 31 30 29 30 31 30 31 32 34 35 36 38 39 39 40 40 40 40 42 43 44 44 46 46 47 48 49 49 49 50 50 50 50 50 50 51 51 50 50 50 50 50 50
34 34 34 33 33 34 33 32 31 32 32 32 32 33 34 35 36 37 38 39 39 40 40 41 42 44 44 45 46 47 48 48 49 50 51 52 52 52 52 51 52 52 53 52 52 52 52 52 52
36 36 36 36 35 36 35 33 33 33 33 33 33 33 34 35 36 37 38 38 39 40 40 41 42 43 44 45 46 47 48 49 50 51 52 53 54 55 54 53 53 54 54 54 54 53 53 53 54
38 38 38 38 38 38 38 35 33 34 34 34 35 35 35 36 36 37 38 38 39 39 40 41 42 43 44 45 46 47 48 49 51 52 52 53 54 55 55 55 55 55 56 56 55 55 55 55 55
39 39 39 39 40 40 40 40 35 35 35 35 35 36 36 36 37 37 37 38 39 39 40 41 42 43 44 45 47 48 48 48 49 51 52 53 54 55 56 57 56 57 57 57 57 56 56 56 56
41 40 40 41 42 42 41 43 39 37 36 36 36 37 37 37 38 38 37 38 39 39 40 42 42 43 45 46 47 48 48 49 50 52 52 53 55 56 57 57 57 57 57 57 57 57 57 57 57
42 42 43 43 43 44 42 43 42 39 37 37 37 38 38 38 38 38 38 38 40 40 41 42 43 44 45 46 46 48 49 50 51 52 53 54 55 56 56 57 58 58 58 58 57 57 57 57 57
42 42 43 44 45 46 44 44 43 41 39 38 38 38 38 38 38 38 38 39 39 40 41 42 43 44 45 45 46 48 49 50 51 52 54 55 55 55 56 57 57 58 59 59 58 57 57 57 57
42 43 44 45 46 46 45 45 43 41 40 39 38 38 38 38 38 38 38 39 39 40 41 42 43 43 45 46 47 48 49 50 52 53 54 54 55 54 55 56 57 58 58 58 57 57 57 58 57
42 43 43 44 46 47 46 46 42 41 40 40 39 38 38 39 39 39 39 39 40 41 42 42 43 44 45 46 47 49 50 51 52 53 54 54 54 54 54 55 57 57 57 57 57 57 57 57 56
43 42 42 43 45 46 47 45 42 41 40 40 40 40 39 39 39 40 40 40 41 42 42 43 44 44 44 45 46 47 48 50 51 53 54 54 53 53 53 54 55 56 56 56 56 56 56 55 55
42 42 42 43 44 45 46 45 42 41 41 41 40 40 40 40 40 40 40 40 41 41 42 43 43 43 44 44 45 46 48 49 51 52 52 53 53 53 53 53 54 54 54 53 54 54 55 55 55
42 42 41 42 42 44 45 45 42 41 41 41 41 41 41 41 41 41 41 41 41 41 42 43 43 43 44 44 45 46 47 48 48 49 50 50 51 51 50 51 52 53 53 53 54 55 56 55 55

GEFSSGP_500_meanwind_216.txt.gz
Wind_Speed
23 23 23 24 24 24 22 22 22 22 22 23 22 22 22 22 22 22 21 20 20 20 19 19 18 18 18 17 17 16 16 15 15 14 14 13 13 13 13 13 12 12 12 11 11 11 11 10 11
24 24 25 25 25 23 22 22 22 22 23 24 23 23 23 23 23 22 22 21 21 21 21 21 20 20 19 19 19 18 18 18 17 17 16 16 15 15 15 15 15 14 14 14 13 13 12 12 12
25 26 26 26 25 23 23 22 23 22 23 23 24 24 23 23 23 23 22 22 22 22 22 22 21 21 21 20 20 20 20 19 19 19 19 18 18 17 17 17 17 16 16 16 15 15 15 14 14
26 26 27 26 25 24 24 24 24 24 23 23 23 23 23 23 24 24 23 23 22 22 23 22 22 22 22 22 22 22 21 21 21 21 20 20 20 20 19 19 19 19 18 17 17 17 17 17 16
26 26 26 25 24 25 25 25 25 25 24 24 24 23 23 23 24 24 24 24 24 23 24 24 24 24 24 23 23 23 23 23 23 22 22 22 22 22 21 21 21 20 20 20 19 19 19 18 18
26 26 26 25 25 25 26 25 25 25 25 25 25 24 23 23 23 24 24 24 25 25 24 24 25 25 24 24 24 24 24 24 24 24 24 24 23 23 23 22 22 22 22 21 21 20 21 20 20
26 26 26 25 25 26 27 26 26 26 26 26 26 25 24 24 24 24 25 25 25 25 25 25 25 25 25 25 25 25 25 25 25 25 25 25 25 24 24 24 24 23 23 23 22 22 22 22 22
25 26 25 24 25 26 27 27 27 27 27 27 27 26 25 25 25 25 26 26 26 26 26 26 26 26 26 26 26 26 26 26 26 26 26 26 26 26 26 26 25 25 25 25 24 24 24 24 24
24 24 23 23 25 26 26 27 27 28 28 28 28 27 26 26 26 26 27 27 27 27 27 27 27 27 27 28 28 28 27 27 27 27 27 27 28 28 27 27 27 27 27 27 26 26 26 26 26
25 23 22 23 25 25 25 26 27 28 28 29 29 29 29 28 28 28 28 28 28 28 28 28 29 29 29 29 29 29 29 29 29 29 29 29 29 29 30 29 29 29 29 29 29 28 28 28 28
26 25 25 25 25 25 25 26 26 27 27 28 29 30 30 29 29 29 29 29 29 30 30 30 30 31 31 31 31 31 32 32 32 32 32 31 32 32 32 32 32 32 32 32 32 31 30 30 30
28 27 28 28 27 27 26 27 27 27 26 28 29 29 30 30 30 30 30 30 31 32 32 32 32 32 32 33 33 34 34 34 34 34 34 34 34 34 34 34 34 34 34 34 34 34 33 33 33
29 29 29 29 29 29 28 28 28 27 27 29 29 29 30 30 30 30 31 31 32 33 33 34 34 34 34 35 35 36 36 37 37 37 36 37 36 36 36 36 36 36 37 37 37 36 36 36 36
31 30 30 30 30 30 30 30 30 27 30 30 30 31 31 31 31 31 32 32 33 33 34 34 35 35 36 36 37 38 38 39 39 39 39 39 39 38 38 38 38 39 39 39 39 39 39 39 38
33 32 32 31 31 31 32 32 30 30 32 32 32 32 32 32 32 32 32 33 33 34 35 36 36 36 37 37 38 39 40 41 41 41 41 41 41 41 41 41 41 41 41 41 41 41 41 41 40
34 34 33 32 33 33 34 32 31 32 33 33 33 33 32 32 32 32 33 34 34 35 36 37 37 37 37 38 39 39 40 41 42 43 43 43 43 43 43 43 44 44 44 44 44 44 43 44 43
36 35 34 34 34 35 35 33 32 33 34 33 33 33 33 33 32 33 34 35 36 36 37 38 38 38 38 39 40 40 40 41 43 44 45 45 45 45 46 46 47 47 47 46 46 46 46 46 46
37 37 36 35 36 36 37 35 34 35 34 34 34 34 34 34 34 35 35 36 36 37 37 38 39 39 40 41 41 42 42 43 44 45 45 46 46 47 48 48 49 49 49 49 49 49 49 49 49
39 38 37 37 37 37 37 37 36 36 35 34 34 35 35 35 35 36 36 36 36 37 38 38 39 40 41 42 42 43 43 44 44 45 46 47 47 48 49 49 50 51 51 51 51 51 51 52 52
40 40 39 38 38 39 39 38 37 37 36 36 36 36 36 36 35 36 37 37 36 36 37 38 39 39 40 42 43 43 44 44 45 46 47 48 48 48 49 49 51 52 53 53 53 54 54 54 54
41 40 40 41 40 41 41 40 39 38 38 37 37 37 37 37 37 38 38 37 37 37 38 39 40 41 42 42 43 43 43 44 45 45 46 48 48 49 50 50 51 53 54 55 56 56 56 56 56
42 41 41 42 42 42 42 43 39 39 39 39 38 38 38 38 39 39 39 39 39 39 40 40 41 42 42 43 43 43 44 44 45 46 46 48 49 50 52 52 53 54 55 57 58 58 58 58 57
43 43 43 43 45 45 43 44 41 39 39 39 40 40 39 39 40 40 40 39 40 40 41 41 41 42 43 43 43 44 45 45 45 46 47 48 49 51 53 53 54 54 56 57 58 59 59 59 60
45 44 45 45 46 48 45 45 44 41 39 39 40 41 41 41 41 41 41 40 40 41 41 42 42 42 43 44 44 44 45 45 47 48 49 50 51 52 53 54 55 56 57 57 58 59 60 61 61
45 45 46 47 48 49 46 47 46 43 41 41 41 41 42 42 41 41 41 42 42 42 42 42 42 42 43 44 45 45 45 46 48 49 50 51 52 53 53 54 55 56 57 57 58 59 60 61 62
45 45 45 47 48 48 48 48 46 45 43 43 43 42 42 42 42 42 42 42 43 43 43 43 43 43 44 45 45 46 46 47 48 50 51 52 53 53 54 54 55 56 57 57 58 59 60 60 60
43 44 44 46 48 49 50 49 47 44 44 44 44 44 43 43 43 43 43 42 43 43 43 43 44 44 45 45 45 46 46 48 49 51 52 52 53 53 54 55 56 56 57 58 58 58 58 58 58
44 43 43 45 47 49 50 49 47 45 44 43 44 44 44 43 43 43 43 43 42 43 43 43 44 45 45 45 45 46 47 48 49 50 51 52 53 54 55 56 56 57 57 57 58 57 57 57 57
43 44 45 46 48 48 49 47 45 44 44 43 44 44 43 43 43 43 43 43 43 43 43 43 43 44 44 45 45 46 47 48 48 49 50 51 52 53 54 55 55 56 56 56 56 56 55 55 56
43 43 44 45 47 49 49 47 44 44 44 43 43 43 43 43 43 43 43 42 42 42 42 43 43 44 45 45 45 46 47 48 48 50 50 51 52 52 53 54 54 54 54 54 55 55 55 54 55

GEFSSGP_500_meanwind_222.txt.gz
Wind_Speed
25 25 26 26 27 26 25 24 24 24 24 24 23 23 22 22 22 22 21 20 20 19 18 18 17 17 17 16 16 16 16 15 14 14 14 13 13 12 12 12 11 11 11 10 10 10 10 10 10
25 25 26 26 27 26 25 24 25 25 25 25 24 24 24 23 23 22 21 21 21 21 20 20 19 19 19 18 18 17 17 17 16 16 16 15 15 14 14 14 13 13 13 13 13 12 12 12 12
26 26 27 27 26 25 25 25 25 25 25 25 25 25 24 24 23 23 22 22 22 22 22 21 21 20 20 20 20 19 19 19 18 18 18 18 17 17 16 15 15 15 15 15 15 15 14 14 14
27 28 28 27 26 26 26 26 26 25 25 25 25 25 25 25 24 23 23 23 23 23 23 22 22 22 22 21 21 21 21 20 20 20 20 20 20 19 19 18 17 17 17 16 16 16 16 16 16
28 29 29 27 26 27 28 27 27 26 25 25 25 25 25 25 25 24 24 24 24 23 23 23 23 23 23 23 23 23 22 22 22 21 22 21 21 21 20 20 20 19 19 18 18 18 18 18 18
28 28 28 27 26 27 28 28 28 27 27 26 26 25 25 25 25 25 24 25 25 24 24 24 24 24 24 24 24 24 24 24 24 23 23 23 22 22 22 21 21 21 20 20 20 19 20 20 20
28 28 28 27 27 28 28 29 28 28 28 27 26 26 25 25 25 25 25 25 25 24 24 24 25 25 25 25 25 25 25 25 25 25 24 24 24 24 23 23 22 22 22 22 22 22 22 22 22
27 28 27 27 27 28 29 29 29 29 28 28 28 27 26 26 26 26 25 25 24 24 24 25 25 25 25 25 25 25 26 26 26 25 25 25 25 25 24 24 24 24 24 24 24 24 24 24 24
28 28 26 26 27 28 30 30 29 29 29 29 28 28 28 27 27 27 26 26 25 25 25 25 25 25 25 25 25 26 26 27 27 26 26 26 26 26 26 26 25 25 25 25 26 26 26 26 26
28 27 26 26 27 28 30 30 30 29 29 29 29 29 29 29 29 28 27 27 26 26 26 26 25 25 25 26 26 27 27 27 28 28 28 27 27 27 27 27 27 27 28 28 28 28 28 28 28
29 28 27 28 29 29 29 30 30 30 30 30 30 30 30 30 30 29 29 28 28 27 27 27 27 27 27 27 27 28 28 28 28 29 29 29 29 29 29 29 29 30 30 30 30 30 30 30 30
31 30 29 30 30 30 30 29 29 29 29 30 31 31 30 30 30 30 30 30 29 29 29 29 29 29 29 29 29 29 29 29 29 30 31 31 31 31 31 32 32 32 32 32 32 33 33 33 33
33 32 31 31 31 32 31 31 30 28 29 30 31 31 31 30 31 31 31 31 31 31 31 31 31 31 31 32 32 32 32 31 31 32 32 33 34 34 34 34 34 34 34 35 35 35 35 35 35
33 34 33 33 32 32 33 32 31 29 31 31 31 31 31 31 32 32 32 32 33 33 33 33 33 33 33 34 34 35 35 34 34 34 35 36 37 37 37 37 37 37 37 37 37 37 37 38 38
34 34 34 34 34 34 34 33 32 31 32 32 32 32 32 32 32 32 32 33 33 33 34 34 35 35 35 36 36 37 37 37 37 38 38 38 39 40 40 39 39 39 39 39 40 40 40 40 41
36 36 35 34 35 35 36 33 33 34 34 34 34 34 33 33 32 32 33 33 33 34 34 35 35 35 36 37 38 39 40 40 40 40 41 40 40 41 41 42 41 41 42 42 42 42 42 42 42
37 37 36 36 37 37 37 35 35 35 36 36 35 35 35 35 34 34 34 34 33 34 34 35 35 35 36 37 38 39 40 41 41 42 42 42 42 42 42 43 44 44 44 44 44 44 45 44 44
38 38 38 38 38 38 38 37 37 37 37 36 36 37 36 36 36 36 35 35 35 34 34 35 35 36 37 38 39 40 40 41 41 41 42 42 42 43 44 45 46 46 45 45 45 46 46 46 46
41 40 40 39 39 40 40 39 38 38 38 37 37 37 37 37 37 37 37 37 36 36 36 35 36 37 37 38 39 39 40 40 41 42 42 43 43 44 44 45 45 46 46 46 46 47 48 48 48
42 42 41 41 41 41 41 40 39 39 38 38 38 38 37 37 37 37 38 37 37 37 37 37 37 37 38 38 38 38 39 40 41 42 43 44 44 45 45 45 45 45 46 47 47 48 49 50 50
43 42 42 42 41 41 41 41 39 39 39 39 39 38 38 38 38 38 38 38 38 38 37 37 37 38 38 38 38 38 38 39 41 42 42 43 44 44 44 44 45 46 46 47 48 48 48 49 50
44 43 43 43 43 42 42 41 39 39 39 39 39 39 39 39 39 39 39 39 39 39 38 38 38 38 38 38 38 38 38 39 40 41 42 43 44 44 44 45 46 47 48 48 49 50 50 51 52
44 44 44 44 44 44 43 44 40 40 40 39 39 39 40 40 40 40 40 40 40 40 40 40 39 39 39 38 38 39 40 41 41 42 42 43 43 44 45 46 47 48 49 50 50 52 52 54 54
44 44 45 45 46 48 45 45 43 40 39 39 39 40 40 40 40 41 41 41 41 41 40 40 40 40 40 40 40 40 41 41 42 43 44 44 44 45 46 47 49 50 51 51 52 53 54 54 55
44 44 45 46 47 48 46 47 46 41 39 39 39 39 40 41 41 42 42 42 42 41 40 41 42 42 41 42 42 42 42 43 43 44 45 45 45 46 48 49 50 50 51 52 53 54 55 56 56
43 44 45 45 47 48 47 47 46 44 42 40 39 39 40 41 41 42 42 43 43 42 42 42 42 43 43 43 43 44 44 44 44 45 46 46 47 48 48 49 50 51 52 53 54 55 56 57 58
42 44 43 45 47 47 48 47 45 43 42 42 41 40 40 41 41 41 42 43 44 44 44 43 44 44 44 44 44 45 45 46 46 46 47 48 49 49 49 50 51 52 53 54 55 55 56 57 58
41 42 42 43 44 45 47 46 44 43 42 42 42 41 41 42 42 43 43 43 44 44 44 44 44 44 45 45 45 46 46 47 47 47 48 48 49 50 50 51 51 52 54 55 55 56 57 58 58
38 40 43 44 43 42 43 44 44 42 42 42 42 42 42 42 43 43 44 44 44 44 44 44 45 45 45 46 46 46 46 47 47 48 48 49 49 50 51 51 52 52 53 55 55 56 57 57 57
39 38 40 42 43 42 42 43 41 41 41 41 42 43 43 43 43 43 43 44 44 44 44 45 45 45 46 46 46 46 46 47 47 47 48 48 49 50 51 51 52 52 53 55 55 55 55 55 55

GEFSSGP_500_meanwind_228.txt.gz
Wind_Speed
27 27 28 28 29 29 27 26 26 26 26 26 25 25 24 24 24 24 21 20 19 19 19 18 18 17 17 16 16 15 15 14 14 13 13 13 12 12 11 11 11 11 11 11 11 11 11 11 11
29 29 29 29 29 28 26 26 28 27 27 26 26 26 26 26 25 24 22 21 20 20 20 19 19 19 18 18 18 17 16 16 15 15 15 14 14 14 13 13 13 13 13 13 13 13 13 13 13
30 30 30 30 29 28 26 28 28 28 27 27 27 27 27 27 25 24 24 23 22 21 21 20 20 20 20 20 19 19 18 18 17 17 17 16 16 16 16 16 15 15 15 15 15 15 15 15 14
31 32 32 31 30 28 28 29 27 28 28 28 28 28 29 28 26 26 25 25 24 22 22 22 21 21 21 21 21 20 20 20 19 19 19 18 18 18 18 18 18 18 17 17 17 17 17 16 16
31 32 33 32 30 29 29 30 28 28 29 29 29 29 28 28 27 27 27 26 25 24 23 23 23 22 22 22 22 22 22 21 21 21 21 21 20 20 20 20 20 20 19 19 19 19 19 18 18
31 32 32 31 30 30 31 31 30 29 30 29 29 29 28 28 28 28 28 28 27 26 25 25 24 24 23 23 23 23 23 23 23 22 22 22 22 21 21 21 21 21 21 21 21 21 20 20 20
31 31 31 31 31 31 31 32 31 30 31 30 30 30 29 28 28 28 29 28 28 27 27 26 25 25 25 25 25 24 24 24 23 23 23 23 23 23 23 23 23 22 22 22 22 21 21 21 22
32 32 31 31 31 31 31 32 31 32 32 32 31 31 30 27 28 28 28 28 28 28 27 27 26 25 25 26 26 25 25 25 24 24 24 24 24 24 24 24 24 24 24 23 23 23 23 23 24
33 33 32 32 32 32 32 32 31 32 32 32 32 32 30 29 29 29 28 28 28 28 27 27 26 26 26 26 26 26 26 26 26 26 26 26 26 26 26 26 26 26 25 25 25 25 25 25 25
34 33 31 32 33 33 32 32 31 32 32 33 32 32 32 31 31 30 30 29 29 28 28 27 27 27 26 26 26 26 26 26 26 27 27 27 27 26 26 27 27 27 27 27 27 27 27 26 26
35 33 32 33 33 33 33 33 32 33 33 33 33 33 33 33 32 32 31 31 30 30 29 28 28 28 28 27 27 27 27 27 28 28 28 28 28 28 27 28 28 28 28 28 29 29 28 28 28
36 35 34 34 34 34 34 34 33 33 33 33 33 33 34 33 33 33 33 32 31 30 30 30 29 29 29 29 29 28 28 28 29 29 29 29 29 29 28 29 29 29 29 30 30 30 31 31 31
37 36 35 35 35 35 35 35 34 33 34 34 33 33 33 33 33 33 33 33 32 32 31 31 30 30 30 30 30 30 30 30 30 30 30 30 30 30 30 30 30 30 31 31 31 32 32 33 33
38 37 37 37 36 35 36 36 35 33 34 35 35 34 34 34 34 34 34 34 34 33 33 32 32 32 32 32 32 32 32 32 31 31 32 32 32 32 32 32 33 33 33 34 34 34 35 35 35
40 39 38 38 38 37 37 37 35 33 35 35 35 35 35 35 35 35 35 35 35 35 35 34 34 33 33 33 33 34 34 34 33 33 33 34 34 34 35 35 36 36 36 37 37 37 37 37 38
41 41 40 38 39 39 39 37 36 35 36 35 35 35 35 36 36 36 36 36 36 36 35 35 36 35 35 35 35 35 35 35 35 35 35 36 36 37 38 38 38 39 39 39 39 39 39 40 40
41 41 40 40 40 40 41 39 36 36 37 36 36 35 35 36 36 36 36 36 37 37 36 36 36 36 36 36 36 37 37 37 37 37 37 38 38 39 40 41 41 41 41 41 41 41 41 42 42
41 41 41 41 41 42 42 41 39 38 38 37 37 36 36 36 36 37 37 37 37 37 36 36 36 36 36 37 37 37 38 38 39 39 40 40 40 41 42 42 43 43 43 43 43 43 43 43 43
42 42 41 42 42 43 43 43 41 40 40 39 38 38 37 37 37 37 37 38 38 37 37 37 36 36 36 37 37 37 38 39 40 41 41 42 42 43 43 43 43 43 43 43 44 44 44 45 45
43 43 42 43 43 44 44 44 43 42 42 41 40 39 38 39 39 38 38 38 38 37 37 37 37 37 37 37 38 38 39 40 41 41 42 42 43 43 43 43 43 44 44 44 44 45 45 46 46
45 44 43 44 45 45 45 45 44 43 43 42 41 40 40 39 39 39 38 38 38 38 38 38 38 38 38 38 39 39 40 41 41 42 42 42 43 43 43 43 43 44 45 45 45 46 46 46 47
46 45 44 45 45 45 46 47 44 43 43 43 42 41 40 40 40 39 39 39 39 39 39 39 39 39 39 40 40 40 41 41 42 43 43 43 43 43 43 43 43 44 44 44 45 45 46 46 47
46 45 45 46 46 47 45 47 45 44 44 43 43 42 41 41 41 40 40 40 40 40 40 40 40 40 40 40 41 41 41 42 43 42 43 43 43 43 43 43 43 44 44 45 45 45 45 46 47
45 45 46 46 47 49 45 47 46 45 43 43 42 42 41 42 42 41 41 40 41 41 41 41 41 41 41 41 41 41 42 42 43 43 43 43 43 43 43 43 43 43 44 44 45 45 46 47 47
44 44 45 46 47 48 46 47 47 45 43 43 42 42 42 43 42 42 41 41 41 41 41 42 42 42 42 42 42 42 43 43 44 43 43 44 43 43 44 44 44 44 44 45 45 46 47 48 49
43 43 44 45 46 46 45 46 46 45 43 42 42 42 42 43 43 43 42 42 42 42 42 42 43 43 44 44 44 44 44 44 44 44 44 44 44 44 44 45 45 46 46 47 47 48 49 50 51
42 42 42 43 45 45 46 46 46 45 44 42 42 42 42 43 43 43 43 43 43 43 43 43 44 44 45 45 44 45 45 45 45 45 45 45 45 46 46 46 47 47 48 49 49 50 50 51 52
41 41 41 43 44 45 45 45 44 44 43 42 42 42 42 43 43 44 44 44 44 44 44 44 44 45 45 45 46 46 46 46 46 46 46 46 46 47 47 48 49 49 49 50 51 51 52 52 53
39 40 41 42 43 43 44 44 44 44 44 44 44 44 44 44 44 44 44 44 44 45 45 45 45 45 46 46 46 46 46 47 47 47 47 47 48 49 49 50 51 51 51 51 52 52 53 53 54
40 40 40 41 42 43 43 44 42 43 44 44 43 44 44 44 44 44 44 44 44 45 45 45 46 46 46 47 47 47 47 48 48 48 48 48 49 50 51 52 52 52 52 53 53 53 54 54 55

GEFSSGP_500_meanwind_234.txt.gz
Wind_Speed
30 30 30 30 31 31 29 27 27 27 26 26 25 25 24 23 22 21 19 18 17 17 16 15 15 14 14 14 13 13 13 13 12 12 11 11 11 11 10 10 10 10 10 10 10 10 10 10 11
32 31 31 31 32 31 29 28 28 28 28 27 26 26 26 25 24 22 21 20 19 19 18 17 16 16 15 15 14 14 14 14 14 13 13 13 13 13 13 13 12 12 12 12 13 13 13 13 13
33 33 33 33 33 31 29 29 29 28 29 28 28 27 26 26 25 24 22 21 21 20 20 19 18 17 16 16 16 15 15 15 15 15 15 15 15 15 15 15 14 14 14 14 14 14 15 15 14
33 34 35 35 33 31 31 30 30 29 30 29 29 29 27 27 26 25 24 23 22 22 21 20 20 19 18 18 17 17 17 17 17 17 16 16 16 16 16 16 16 16 16 16 16 16 17 17 16
35 35 35 35 33 32 32 32 31 30 31 30 29 29 29 28 27 26 25 25 24 23 22 22 21 20 20 19 19 19 19 19 18 18 18 18 18 18 18 18 17 17 18 18 18 19 19 18 18
35 36 36 34 32 32 33 33 33 32 31 31 31 30 30 29 28 27 27 26 25 25 24 23 23 22 21 21 20 20 20 20 20 20 20 20 19 19 19 19 19 19 19 19 20 20 20 20 20
36 36 35 34 33 34 33 33 34 33 32 32 32 31 31 30 28 28 27 27 26 26 25 25 24 23 23 22 22 21 21 21 21 21 21 21 21 21 21 21 21 21 21 21 21 21 21 21 21
37 37 37 35 33 33 33 34 34 34 33 32 31 31 30 30 29 29 28 27 27 27 26 26 25 24 24 23 23 23 22 22 22 22 21 21 22 22 22 22 23 23 23 23 22 23 23 23 23
38 39 37 35 34 33 34 34 34 33 33 32 31 31 30 30 30 29 29 28 28 27 27 27 26 26 25 25 24 24 24 23 23 23 23 23 23 23 23 24 24 24 24 25 25 25 25 25 25
39 39 36 35 35 34 35 35 35 34 32 31 31 31 31 31 30 30 29 29 28 28 28 28 28 27 27 26 26 25 25 25 25 25 25 25 25 25 25 25 26 26 26 26 27 27 27 27 27
38 37 36 36 36 36 36 36 35 35 33 32 31 31 31 31 31 31 30 30 29 29 28 28 28 28 28 28 27 27 26 26 26 26 26 26 26 26 27 27 27 27 28 28 28 28 28 28 28
38 37 37 36 36 37 37 37 36 36 34 33 32 32 31 31 31 31 32 31 30 29 29 29 28 28 28 28 28 28 27 27 27 28 28 28 28 28 28 28 28 29 29 28 28 28 29 29 29
39 37 37 37 37 37 38 38 37 36 35 34 33 33 32 31 31 32 32 32 31 30 29 29 29 29 29 29 29 29 29 28 29 29 29 29 29 29 29 29 30 29 29 29 29 30 30 30 30
40 39 38 38 38 38 38 37 37 35 35 34 34 34 33 32 32 32 33 33 32 31 31 31 31 31 31 30 30 30 30 30 30 30 30 30 30 30 31 30 30 31 31 31 32 32 32 32 32
42 42 41 40 39 39 39 38 36 36 36 35 34 34 34 33 33 33 33 33 33 33 33 33 32 32 33 32 32 32 31 31 31 31 31 31 31 31 32 32 32 32 32 33 34 34 34 34 34
44 44 43 41 41 40 41 38 37 38 37 36 35 35 35 34 34 33 33 33 33 34 34 34 34 34 34 34 34 34 34 33 32 32 33 33 33 33 33 33 33 34 34 34 35 36 36 36 37
44 44 43 42 42 42 42 39 39 39 39 37 37 36 35 35 34 34 33 34 34 34 34 35 35 35 35 35 35 35 35 35 35 34 34 34 35 34 34 35 35 35 36 36 37 37 38 39 39
44 43 43 42 43 44 44 41 41 41 41 39 38 37 36 35 35 35 35 34 34 35 35 35 35 36 36 36 36 36 36 36 36 36 36 36 36 36 36 36 37 37 38 38 38 39 40 41 41
45 45 44 43 43 44 44 43 43 42 42 41 40 39 37 36 36 36 35 35 35 35 35 35 35 36 36 36 36 37 37 37 37 37 37 37 37 38 38 38 38 39 39 40 40 41 42 42 43
46 46 45 44 44 45 44 44 44 43 43 42 41 40 38 37 37 36 36 35 35 35 36 35 36 36 36 36 36 37 37 37 37 37 37 37 37 38 38 39 39 40 40 41 42 43 43 43 43
46 46 45 44 44 45 45 45 44 43 43 43 42 41 40 39 37 37 37 36 36 36 36 36 36 36 36 36 37 37 37 37 38 37 38 38 38 39 39 40 40 41 41 42 42 43 44 43 43
46 45 45 45 46 45 45 46 44 43 43 43 42 42 41 40 39 38 37 37 36 36 37 36 37 37 37 37 37 37 38 38 38 38 38 39 39 40 40 41 41 41 42 42 42 43 44 43 43
45 45 45 46 47 47 46 47 44 43 43 42 42 42 41 41 40 39 38 38 37 37 37 37 37 37 37 37 38 38 38 38 38 38 39 39 40 40 41 41 41 42 42 42 42 43 43 43 43
44 44 44 45 47 49 46 46 46 43 41 41 42 42 42 42 42 41 40 39 38 38 37 38 37 38 38 38 38 39 39 39 39 39 39 40 40 40 41 42 42 42 43 43 43 42 43 43 43
43 43 43 45 46 48 45 46 45 42 41 40 41 42 42 42 42 41 40 40 39 39 38 38 38 38 38 39 39 39 40 40 40 39 40 40 40 41 42 42 42 42 43 43 43 43 43 43 43
41 41 43 44 46 46 45 45 44 43 41 40 40 41 41 42 42 41 41 41 40 40 40 40 40 39 40 40 40 40 40 40 40 40 41 41 42 42 42 42 42 43 43 43 43 43 44 44 45
39 40 41 42 44 44 44 44 43 42 41 40 39 40 40 41 41 41 41 41 41 41 41 41 41 41 41 41 41 41 41 41 41 41 42 42 43 43 43 43 44 44 44 45 45 45 46 46 47
38 38 39 41 42 42 43 42 41 40 40 40 40 40 40 40 41 41 41 41 41 42 42 42 42 42 42 42 42 43 42 42 43 43 43 43 44 44 44 44 45 45 45 46 47 47 48 48 49
37 38 39 39 40 41 41 41 39 39 39 39 39 39 39 40 40 40 40 41 41 42 42 42 43 43 43 43 43 43 43 44 44 45 45 46 46 46 46 46 46 46 47 47 48 49 49 50 51
38 39 39 39 39 39 40 39 38 38 39 39 39 39 39 39 40 41 41 41 42 42 42 42 43 44 44 44 45 45 45 45 45 46 46 47 47 47 47 47 48 48 48 49 50 51 51 52 53

GEFSSGP_500_meanwind_240.txt.gz
Wind_Speed
31 32 32 32 33 33 31 27 25 25 25 25 25 24 23 22 21 20 19 18 17 16 15 14 13 12 12 11 11 10 10 9 8 7 7 7 7 6 6 6 7 7 8 8 9 9 9 10 10
33 34 34 34 35 33 31 29 27 27 27 27 26 26 25 24 23 22 21 20 19 18 17 16 15 14 14 13 12 12 11 11 10 10 9 9 9 8 8 8 9 9 9 9 10 10 10 11 11
35 35 36 36 36 33 31 29 29 29 28 28 28 27 26 25 24 23 22 21 21 20 19 18 17 16 16 15 14 13 13 12 12 12 12 11 11 11 10 10 10 10 10 11 11 11 12 12 13
36 37 38 38 36 33 31 31 31 30 29 29 29 28 27 26 25 24 23 23 22 21 20 20 19 18 17 16 16 15 14 14 13 13 13 13 12 12 12 12 12 12 12 13 13 13 14 14 14
38 38 39 38 36 33 32 32 32 31 31 30 29 29 28 27 27 26 25 24 23 23 22 21 20 20 19 18 17 16 16 15 15 15 14 14 14 14 14 14 14 14 14 15 15 15 15 16 16
39 40 40 38 36 34 33 33 33 33 32 32 31 30 29 28 28 27 26 25 25 24 24 22 22 21 20 19 19 18 17 17 16 16 16 16 15 15 15 15 15 15 15 16 16 16 17 17 18
40 40 40 38 36 35 35 35 35 34 34 33 32 31 30 29 29 28 27 27 26 25 25 24 24 23 22 21 20 19 19 18 18 17 17 17 17 16 17 17 17 17 17 17 17 17 18 18 19
41 41 40 39 36 35 36 37 36 36 35 35 34 32 31 31 30 29 29 28 27 27 26 26 25 25 24 23 22 21 20 20 20 19 19 19 19 19 19 19 19 19 19 19 19 19 20 20 21
41 42 40 37 36 36 37 38 38 37 37 36 35 34 33 32 31 30 30 30 29 28 28 27 27 26 25 24 24 23 22 22 22 21 21 21 21 21 20 21 21 21 21 21 21 21 22 22 23
42 42 39 37 37 37 37 38 39 39 38 37 36 35 34 33 32 31 31 30 30 30 29 29 28 28 27 26 25 25 24 24 23 23 23 23 22 22 22 22 22 23 23 23 23 23 24 24 24
43 41 39 38 37 37 38 38 39 39 39 38 37 36 35 34 33 31 31 31 31 30 30 30 29 28 28 27 27 26 26 26 25 25 25 24 24 24 24 24 24 24 24 24 25 25 25 25 25
43 41 40 39 38 38 38 39 39 39 39 38 38 36 36 35 33 32 32 31 31 31 30 30 29 29 29 28 28 28 27 27 27 27 27 26 26 26 26 26 26 26 26 26 26 26 26 27 27
44 42 42 41 40 39 40 40 40 39 38 38 38 37 36 35 34 34 33 33 32 32 31 31 30 30 30 30 29 29 28 28 28 28 28 28 28 27 27 27 27 27 27 27 28 28 28 28 28
45 44 43 42 42 41 41 41 41 39 38 38 38 38 36 35 35 34 34 33 32 32 32 32 31 31 30 30 30 30 29 29 28 28 28 28 28 28 28 28 29 29 29 29 29 29 29 30 30
46 46 45 44 43 43 42 42 41 39 39 39 39 38 37 36 35 35 34 34 33 32 32 32 32 32 32 31 31 31 30 30 30 29 29 29 29 29 30 30 30 30 30 31 31 31 31 31 32
48 48 47 45 44 44 44 42 39 41 41 40 39 38 38 37 36 36 36 35 34 34 33 33 33 33 33 33 32 32 31 31 31 31 31 31 31 31 31 31 32 32 32 32 32 32 33 33 34
49 49 47 45 45 44 45 42 40 41 42 41 40 39 38 38 37 37 37 36 36 35 35 34 34 34 34 34 34 33 33 32 32 33 33 33 33 33 33 33 33 34 34 34 34 34 34 35 35
48 48 47 46 46 45 45 43 42 42 42 41 41 40 39 38 38 38 38 37 37 36 36 35 35 35 35 35 35 34 34 34 34 34 34 34 34 35 35 35 35 36 36 36 36 36 36 36 37
48 47 47 46 46 47 47 45 44 44 43 41 41 40 40 39 39 39 39 38 38 37 37 36 36 36 36 36 36 36 35 35 35 35 35 35 35 36 36 36 37 37 37 37 37 37 37 38 38
48 48 47 47 47 47 48 47 45 45 43 42 41 41 41 41 41 40 39 38 38 38 37 37 37 37 37 37 37 37 37 37 37 37 36 36 37 37 37 37 37 37 37 37 38 39 39 39 40
47 47 46 46 47 47 48 48 47 46 45 44 43 42 42 42 41 40 40 39 39 38 38 38 38 38 37 38 38 37 38 38 38 38 38 38 38 38 38 38 38 38 38 38 39 40 40 41 41
46 46 46 46 47 47 48 49 47 46 45 44 43 43 42 42 42 41 41 40 40 39 39 39 39 38 38 38 38 38 38 38 38 38 38 38 38 38 39 39 39 39 39 39 40 41 41 42 42
45 45 45 46 47 48 48 49 47 46 45 44 43 43 42 43 42 42 41 41 41 40 40 40 39 39 39 39 39 39 39 39 39 39 39 39 39 40 40 40 40 41 41 40 41 41 42 42 42
44 44 45 46 47 49 47 48 47 45 44 43 44 43 43 43 43 42 42 42 41 41 41 40 40 40 40 40 40 40 39 39 39 39 39 40 40 40 41 41 42 42 42 42 42 42 43 43 43
42 42 43 45 47 49 47 48 48 44 43 43 43 43 43 44 44 44 43 42 42 42 41 41 41 41 40 40 40 40 40 39 39 40 40 40 41 41 41 42 42 42 42 42 43 43 43 43 43
41 41 42 43 45 46 46 47 47 45 43 42 43 43 43 44 44 44 44 43 43 43 42 41 41 41 41 41 41 41 41 40 40 40 40 41 41 41 42 42 42 43 43 43 43 43 43 43 44
39 40 40 40 43 44 45 46 45 44 43 42 42 42 43 43 44 44 44 44 44 44 43 43 42 42 42 42 42 41 41 41 41 41 41 41 42 42 43 43 43 43 43 43 44 44 44 44 45
38 38 39 40 40 42 44 44 44 42 42 41 41 42 42 43 44 44 44 44 44 44 44 44 44 43 43 43 43 43 42 42 42 42 42 43 43 43 43 43 43 43 43 44 44 45 45 46 47
37 38 39 39 41 41 42 43 42 40 40 40 40 41 41 42 43 44 44 44 44 45 45 45 45 45 44 44 44 44 43 43 43 44 44 44 44 44 44 44 44 44 45 45 45 45 46 47 48
37 38 39 39 40 41 40 41 40 39 39 39 39 40 40 41 42 43 43 44 44 45 46 46 46 46 45 45 45 45 45 44 45 45 45 45 46 45 45 45 45 45 45 46 46 46 46 47 47